Location: Focicchia
(42.2496°N, 9.2935°E)
Time: 03:22:23
(UTC+00:00)

Cosmos 2333 Rocket - Pass Details

Date: 07 June 2020
Orbit: 838 x 863 km, 70.8° (Epoch: 07 July)

Event Time Altitude Azimuth Distance (km) Brightness Sun altitude
Exits shadow 02:37:37 - 192° (SSW) 2,585 4.2 -10.8°
Reaches altitude 10° 02:37:59 10° 191° (S) 2,447 4.1 -10.8°
Maximum altitude 02:43:32 66° 110° (ESE) 919 2.5 -10.0°
Drops below altitude 10° 02:49:09 10° 30° (NNE) 2,475 6.0 -9.3°
Sets 02:51:37 0° 28° (NNE) 3,418 6.9 -8.9°
